Regional Weather Roundup
Issued by NWS Mt. Holly, NJ

Home | Current Version | Previous Version | Text Only | Print | Product List | Glossary On
Versions: 1 2 3 4 5 6 7 8 9 10 11 12 13 14 15 16 17 18 19 20 21 22 23 24 25 26 27 28 29 30 31 32 33 34 35 36 37 38 39 40 41 42 43 44 45 46 47 48 49 50
000
ASUS41 KPHI 041512
RWRPHI

REGIONAL WEATHER ROUNDUP
NATIONAL WEATHER SERVICE MOUNT HOLLY NJ
1000 AM EST THU MAR 04 2021

NOTE:  "FAIR" INDICATES FEW OR NO CLOUDS BELOW 12,000 FEET WITH NO
SIGNIFICANT WEATHER AND/OR OBSTRUCTIONS TO VISIBILITY.

 * = STATION DOES NOT REPORT PRECIPITATION (E.G. RAIN, SNOW, ETC.)
        OR FOG.

NJZ015>026-041600-
SOUTHERN NEW JERSEY

CITY           SKY/WX    TMP DP  RH WIND       PRES   REMARKS
POMONA         MOSUNNY   47  29  49 NW20G30   29.86S
WILDWOOD*      SUNNY     44  35  70 W10       29.90S
MILLVILLE      MOSUNNY   47  29  49 NW17G26   29.88F
WRIGHTSTOWN    SUNNY     47  28  48 NW23G30   29.85S
MOUNT HOLLY    SUNNY     46  27  47 NW13G23   29.87S
TRENTON        CLOUDY    41  26  55 NW15G23   29.86S

$$
NJZ001>014-041600-
NORTHERN NEW JERSEY

CITY           SKY/WX    TMP DP  RH WIND       PRES   REMARKS
SUSSEX         LGT RAIN  36  25  64 W8        29.84F WCI  30
ANDOVER*         N/A     37  22  54 VRB7G21   29.84S WCI  32
MORRISTOWN     PTSUNNY   41  27  56 N13G24    29.85F
NEWARK         PTSUNNY   41  24  51 NW18G24   29.84S
TETERBORO      PTSUNNY   40  21  46 NW18G30   29.83S WCI  31
CALDWELL       CLOUDY    41  21  44 NW13G23   29.85S
SOMERVILLE     MOSUNNY   42  21  43 NW15G25   29.85R
ALLAIRE*       PTSUNNY   45  27  49 NW20      29.84F
TOMS RIVER*    PTSUNNY   45  28  51 NW13G22   29.84F

$$
PAZ043-044-047-054-055-060>062-066>071-041600-
EASTERN PENNSYLVANIA

CITY           SKY/WX    TMP DP  RH WIND       PRES   REMARKS
PHILADELPHIA   MOSUNNY   46  27  47 NW20G26   29.89R
NORTH PHILA    MOSUNNY   46  25  43 NW18G28   29.89R
BLUE BELL*     PTSUNNY   43  26  51 NW8G21    29.88S
DOYLESTOWN     MOSUNNY   42  25  50 N9G21     29.86R
QUAKERTOWN*    SUNNY     41  25  52 W10G18    29.88R
PERKASIE*      FAIR      39  25  56 N12G17    29.88R WCI  32
POTTSTOWN      PTSUNNY   41  24  51 NW13G24   29.89S
LANCASTER      MOSUNNY   46  28  49 NW18      29.90S
COATESVILLE    PTSUNNY   41  30  65 NW15G21   29.90S
WEST CHESTER   PTSUNNY   43  28  56 MISG      29.89R
READING        MOSUNNY   42  26  53 NW15      29.89R
ALLENTOWN      MOSUNNY   38  23  55 NW17G25   29.88S WCI  28
QN CITY/ALNTWN PTSUNNY   39  25  56 N10G18    29.90R WCI  32
MOUNT POCONO   CLOUDY    30  17  58 NW18G31   29.79S WCI  18
HAZLETON       CLOUDY    34  19  55 NW12G26   29.88S WCI  25
LEHIGHTON      FAIR      37  21  52 N14G22    29.90R WCI  29
WILKES BARRE   CLOUDY    38  18  44 NW16G25   29.87F WCI  29

$$
DEZALL-MDZ008-012-015-019-020-041600-
DELAWARE AND EASTERN MARYLAND

CITY           SKY/WX    TMP DP  RH WIND       PRES   REMARKS
WILMINGTON     MOSUNNY   47  29  49 NW16      29.90S
DOVER          SUNNY     48  30  51 NW13      29.90F
CHESWOLD       SUNNY     48  30  49 W12G20    29.91S
GEORGETOWN     SUNNY     50  30  46 N12G21    29.90F
EASTON         SUNNY     48  28  46 NW13G20   29.97R
STEVENSVILLE   SUNNY     48  28  46 N10G18    29.94F
ABERDEEN       MOSUNNY   47  26  43 NW16G25   29.92S
PATUXENT       MOSUNNY   52  32  46 NW16      29.93S
OCEAN CITY     SUNNY     51  32  48 N13G20    29.90F
WALLOPS ISLAND SUNNY     51  32  48 N14       29.91S
CAMBRIDGE      SUNNY     48  28  46 N16G26    29.93S
SALISBURY      SUNNY     50  31  48 N14       29.91S

$$
PAZ001-021-NYZ056-072-MDZ011-DCZ001-041600-
OTHER NEARBY LOCATIONS

CITY           SKY/WX    TMP DP  RH WIND       PRES   REMARKS
HARRISBURG     PTSUNNY   44  23  43 NW22G31   29.91S
STATE COLLEGE  PTSUNNY   37  21  52 NW12G23   29.93S WCI  30
WILLIAMSPORT   CLOUDY    39  21  48 NW13G21   29.92S WCI  31
BINGHAMTON     LGT SNOW  26  17  68 NW13G25   29.85S WCI  15
NEW YORK CITY  CLOUDY    40  20  44 NW14G29   29.85S WCI  32
BALTIMORE      MOSUNNY   50  25  37 NW17G24   29.92F
WASHINGTON DC  MOSUNNY   50  29  44 N14G25    29.96F

$$




USA.gov is the U.S. government's official web portal to all federal, state and local government web resources and services.